Regional Weather Roundup
Issued by NWS

Home | Current Version | Previous Version | Graphics & Text | Print | Product List | Glossary On
Versions: 1 2 3 4 5 6 7 8 9 10 11 12 13 14 15 16 17 18 19 20 21 22 23 24 25 26 27 28 29 30 31 32 33 34 35 36 37 38 39 40 41 42 43 44 45 46 47 48 49 50
109
ASUS45 KBOI 232110
RWRID

IDAHO REGIONAL WEATHER ROUNDUP
NATIONAL WEATHER SERVICE BOISE ID
300 PM MDT SAT JUL 23 2016

NOTE: "FAIR" INDICATES FEW OR NO CLOUDS BELOW 12000 FEET
WITH NO SIGNIFICANT WEATHER AND/OR OBSTRUCTIONS TO VISIBILITY

IDZ012-014-232200-
SOUTHWEST IDAHO


CITY           SKY/WX    TMP DP  RH WIND       PRES   REMARKS
BOISE          SUNNY     82  30  15 NW13      30.12F
CALDWELL       NOT AVBL
MOUNTAIN HOME  SUNNY     84  30  14 NW18G26   30.09F
$$

IDZ016-017-232200-
SOUTHCENTRAL IDAHO


CITY           SKY/WX    TMP DP  RH WIND       PRES   REMARKS
BURLEY         SUNNY     79  36  21 W16G23    30.14F
JEROME         SUNNY     81  34  18 W12       30.15F
TWIN FALLS     SUNNY     82  33  17 NW12      30.16F
$$

IDZ019>023-232200-
SOUTHEAST IDAHO


CITY           SKY/WX    TMP DP  RH WIND       PRES   REMARKS
IDAHO FALLS    SUNNY     81  36  19 S18G28    30.15F
POCATELLO      MOSUNNY   83  33  16 SW18G28   30.16F
REXBURG        SUNNY     79  36  21 S14G20    30.15F
$$

IDZ006-010-011-018-031-032-232200-
CENTRAL IDAHO MOUNTAINS


CITY           SKY/WX    TMP DP  RH WIND       PRES   REMARKS
MCCALL         SUNNY     74  32  21 VRB5      30.21F
HAILEY         MOSUNNY   79  30  17 S12       30.17F
STANLEY          N/A     76  26  15 W9        30.23F
SALMON         SUNNY     79  39  24 NW5       30.07F
CHALLIS        MOSUNNY   85  24  11 E7        30.08F
$$

IDZ002-004-006-007-026-232200-
NORTHERN IDAHO


CITY           SKY/WX    TMP DP  RH WIND       PRES   REMARKS
LEWISTON       SUNNY     81  44  27 NW3       30.11F
LOWELL           N/A     82  47  29 VRB3      30.08F
COEUR D`ALENE  MOSUNNY   73  48  40 CALM      30.15F
MULLAN PASS    MOSUNNY   58  44  60 VRB5      30.28S
$$




USA.gov is the U.S. government's official web portal to all federal, state and local government web resources and services.